Regional Weather Roundup
Issued by NWS

Home | Current Version | Previous Version | Text Only | Print | Product List | Glossary On
Versions: 1 2 3 4 5 6 7 8 9 10 11 12 13 14 15 16 17 18 19 20 21 22 23 24 25 26 27 28 29 30 31 32 33 34 35 36 37 38 39 40 41 42 43 44 45 46 47 48 49 50
000
ASUS43 KDTX 251010
RWRMI
MICHIGAN HOURLY REGIONAL WEATHER ROUNDUP
NATIONAL WEATHER SERVICE DETROIT/PONTIAC MI
600 AM EDT FRI JUL 25 2014

NOTE: "FAIR" INDICATES FEW OR NO CLOUDS BELOW 12,000 FEET WITH NO
SIGNIFICANT WEATHER AND/OR OBSTRUCTION TO VISIBILITY.

MIZ047>049-052>055-059>063-066>070-074>076-081>083-251100-
SOUTHEAST LOWER MICHIGAN

CITY           SKY/WX    TMP DP  RH WIND       PRES   REMARKS
ADRIAN         CLEAR     50  48  93 SW3       30.10R
ALMA           CLEAR     51  50  96 CALM      30.06S
ANN ARBOR      PTCLDY    48  46  93 CALM      30.08S FOG
BAD AXE        PTCLDY    49  46  90 S3        30.07R
CARO           PTCLDY    52  52  99 CALM      30.07R
DETROIT CITY   CLEAR     61  49  64 SW5       30.08R
DETROIT        MOCLDY    57  52  83 S6        30.09R
FLINT          PTCLDY    54  49  83 CALM      30.08R
GROSSE ILE     PTCLDY    61  54  77 CALM      30.07S
HILLSDALE      PTCLDY    53  53  99 CALM      30.09S
HOWELL         PTCLDY    51  50  94 CALM      30.08S

CITY           SKY/WX    TMP DP  RH WIND       PRES   REMARKS
JACKSON        CLEAR     50  48  93 CALM      30.08S
LAMBERTVILLE   CLEAR     52  50  93 CALM      30.10R FOG
LANSING        CLEAR     53  50  89 E3        30.07F
LAPEER         FAIR      49  47  94 CALM      30.08R
MASON          CLEAR     49  48  97 S6        30.08S
MONROE         PTCLDY    52  52 100 CALM      30.07S FOG
MT. CLEMENS    CLEAR     53  49  86 S5        30.06R
PONTIAC        MOCLDY    56  50  80 W3        30.07R
PORT HOPE        N/A     57  47  69 SW6       30.03S
PORT HURON     CLEAR     45  45 100 CALM      30.08R FOG
TRI CITIES     PTCLDY    56  51  84 SW6       30.07R
TROY           PTCLDY    57  51  78 CALM      30.08S
SAGINAW HB     PTCLDY    54  52  94 CALM      30.06S
$$
MIZ043>046-050>051-056>058-064>065-071>073-077>080-251100-
SOUTHWEST LOWER MICHIGAN

CITY           SKY/WX    TMP DP  RH WIND       PRES   REMARKS
BATTLE CREEK   CLEAR     54  50  86 S5        30.08S
BENTON HARBOR  PTCLDY    49  47  93 CALM      30.07R
BIG RAPIDS     PTCLDY    50  50 100 CALM      30.04F
COLDWATER      PTCLDY    54  53  96 CALM      30.08F
FREMONT        FAIR      50  50  99 SE3       30.03F
HOLLAND        PTCLDY    52  49  89 CALM      30.06S
GRAND RAPIDS   PTCLDY    53  50  89 CALM      30.06F
IONIA          FAIR      51  49  93 S5        30.05F
KALAMAZOO      PTCLDY    55  52  89 S5        30.07F
LUDINGTON      MOCLDY    57  51  80 CALM      30.02S
MARSHALL       PTCLDY    50  50  99 CALM      30.07F
MOUNT PLEASANT PTCLDY    50  49  95 CALM      30.03F
MUSKEGON       PTCLDY    55  50  83 S3        30.04S
SOUTH HAVEN    PTCLDY    49  49 100 CALM      30.07R
$$
MIZ016>042-251100-
NORTHERN LOWER MICHIGAN

CITY           SKY/WX    TMP DP  RH WIND       PRES   REMARKS
ALPENA         CLEAR     47  46  97 CALM      30.02S
BEAVER ISLAND  PTCLDY    58  52  80 SW7       29.97F
BELLAIRE       CLEAR     44  43  96 CALM      30.00F FOG
CADILLAC       PTCLDY    44  43  96 CALM      30.01F
CHARLEVOIX     CLEAR     52  51  97 SE6       30.01F
FRANKFORT      PTCLDY    57  51  79 CALM      30.00S
GAYLORD        CLEAR     48  45  89 SW3       30.02F
GRAYLING       CLEAR     41  41 100 CALM      30.03F
HARBOR SPRINGS CLEAR     51  49  92 CALM      29.99F
HOUGHTON LAKE  PTCLDY    44  43  96 CALM      30.04S
MANISTEE       MOCLDY    48  46  93 E5        30.01F
OSCODA         PTCLDY    48  45  89 CALM      30.03S
PELLSTON       CLEAR     42  41  96 CALM      29.99F
ROGERS CITY    CLEAR     52  48  88 SW5       30.02S
TRAVERSE CITY  CLEAR     52  46  80 CALM      29.98F
$$
MIZ007>008-015-251100-
EASTERN UPPER MICHIGAN

CITY           SKY/WX    TMP DP  RH WIND       PRES   REMARKS
KINROSS        PTCLDY    55  54  94 S6        29.97F
MACKINAC ISLAN CLEAR     58  55  89 SW8       29.97F
NEWBERRY       CLOUDY    55  48  76 SW12      29.95F
S. S. MARIE    PTCLDY    50  47  89 CALM      29.97S
MUNISING         N/A     60  48  64 S10       29.91F
$$
MIZ004>006-011>014-085-251100-
CENTRAL UPPER MICHIGAN

CITY           SKY/WX    TMP DP  RH WIND       PRES   REMARKS
MANISTIQUE     MOCLDY    56  53  91 SW5       29.95F
ESCANABA       PTCLDY    54  48  82 W6        29.94F
MENOMINEE      MOCLDY    63  46  55 SW7       29.96R
SAWYER-GWINN   PTCLDY    54  51  90 CALM      29.95R
$$
MIZ001>003-009>011-084-251100-
WESTERN UPPER MICHIGAN

CITY           SKY/WX    TMP DP  RH WIND       PRES   REMARKS
IRON MOUNTAIN  MOCLDY    58  54  86 CALM      29.95R
HOUGHTON       CLEAR     54  51  90 CALM      29.89F
COPPER HARBOR    N/A     63  50  62 VRB7      29.87F
$$

ABBREVIATIONS USED IN REMARKS
   TC - TEMPERATURE IN CELSIUS
  WCI - WIND CHILL INDEX
   HX - HEAT INDEX
  VSB - VISIBILITY




USA.gov is the U.S. government's official web portal to all federal, state and local government web resources and services.